Tracking 35331 objects as of 16-Sep-2026
HD Live streaming from Space Station
objects crossing your sky now

DELTA 2 DEB


DELTA 2 DEB is no longer on orbit


NORAD ID: 35428
Int'l Code: 2004-045D
Launch date: November 6, 2004
Source: United States (US)
Launch site: AIR FORCE EASTERN TEST RANGE (AFETR)
Decay date: 2022-08-28

Note: This is SATELLITE DEBRIS
Your satellite tracking list
Your tracking list is empty




NASA's NSSDC Master Catalog

Two Line Element Set (TLE):
1 35428U 04045D   22235.22903856  .02286516  49594-5  13926-3 0  9994
2 35428  38.8528 295.9162 0211220 269.6216  88.0388 15.98920251442829
Source of the keplerian elements: AFSPC